[[{"header":{"parameterUnit":"m.s-1","parameterCategory":1,"la1":30.2991,"la2":30.254,"lo1":-89.0895,"lo2":-89.0444,"dy":0.0017,"dx":0.0017,"nx":28,"ny":28,"refTime":"2025-06-13T21:00:00:Z","depth":0,"parameterNumber":2,"parameterNumberName":"U-component_of_WINDS"},"data":[0,0,0,0,0,0,0,0,0,0,0,0,0,0,0,0,0,0,0,0,0,0,0,0,0,0,0,0,0,0,0,0,0,0,0,0,0,0,0,0,0,0,0,0,0,0,0,0,0,0,0,0,0,0,0,0,0,0,-0.2372,-0.237,0,-0.2253,-0.2252,-0.225,-0.2198,-0.2198,-0.2198,-0.2198,-0.2076,-0.2073,-0.2069,0,0,0,0,0,0,0,0,0,0,0,0,0,-0.2553,-0.255,-0.2372,-0.237,-0.2369,-0.2253,-0.2252,-0.225,-0.2198,-0.2198,-0.2198,-0.2198,-0.2077,-0.2073,-0.2069,0,0,0,0,0,0,0,0,0,0,0,0,0,-0.2458,-0.2549,-0.2372,-0.2329,-0.2324,-0.2254,-0.2252,-0.225,-0.2198,-0.2198,-0.2198,-0.2198,-0.2078,-0.2073,-0.2068,-0.2032,0,0,-0.2053,-0.2051,0,0,0,0,0,0,0,0,-0.2464,-0.2452,-0.2337,-0.2332,-0.2326,-0.2241,-0.2271,-0.2177,-0.2198,-0.2246,-0.2198,-0.2199,-0.213,-0.2121,-0.2098,-0.2026,-0.2021,-0.2052,-0.2049,-0.2047,-0.2046,0,0,0,0,0,0,0,-0.247,-0.2456,-0.2325,-0.2335,-0.2328,-0.2315,-0.2302,-0.2253,-0.2188,-0.2241,-0.2237,-0.2224,-0.2128,-0.2103,-0.2095,-0.2019,-0.2052,-0.2048,-0.2045,-0.2043,-0.1912,-0.1911,0,0,0,0,0,0,-0.2484,-0.2462,-0.2329,-0.2321,-0.2397,-0.2312,-0.2297,-0.2268,-0.2189,-0.2177,-0.2224,-0.2222,-0.2112,-0.2101,-0.2091,-0.2043,-0.2047,-0.2042,-0.2039,-0.1912,-0.1912,-0.1911,0,0,0,0,0,0,-0.2488,-0.2472,-0.2333,-0.2391,-0.2372,-0.2308,-0.2276,-0.2265,-0.2241,-0.2175,-0.2164,-0.2211,-0.2112,-0.2098,-0.2047,-0.2038,-0.204,-0.2035,-0.1913,-0.1912,-0.1911,-0.1947,0,0,0,0,0,0,-0.2493,-0.2474,-0.246,-0.2391,-0.2369,-0.2292,-0.2275,-0.2263,-0.2232,-0.2229,-0.216,-0.2149,-0.2111,-0.2055,-0.2042,-0.2031,-0.2031,-0.1913,-0.1912,-0.1912,-0.1946,-0.1948,-0.1949,0,0,0,0,0,-0.25,-0.2474,-0.2459,-0.2444,-0.235,-0.2292,-0.2279,-0.2236,-0.2232,-0.2217,-0.2175,-0.2151,-0.2041,-0.205,-0.2035,-0.2022,-0.1914,-0.1913,-0.1912,-0.1946,-0.1947,-0.1949,0,0,0,0,0,0,-0.2544,-0.2465,-0.2447,-0.2398,-0.2352,-0.2283,-0.2263,-0.2239,-0.2193,-0.2192,-0.214,-0.2125,-0.2079,-0.2045,-0.2057,-0.1983,-0.1975,-0.1971,-0.2006,-0.2007,-0.2009,-0.2017,-0.2027,0,0,0,0,0,-0.2548,-0.2508,-0.244,-0.2404,-0.2382,-0.2326,-0.23,-0.227,-0.222,-0.2201,-0.2155,-0.2107,-0.2062,-0.2033,-0.1987,-0.1942,-0.1926,-0.1925,-0.1927,-0.1928,-0.1925,-0.1898,-0.1897,-0.1908,-0.1908,-0.1908,0,0,-0.2556,-0.2507,-0.2485,-0.2412,-0.2372,-0.2332,-0.231,-0.2268,-0.2237,-0.2194,-0.2143,-0.2108,-0.2052,-0.2004,-0.198,-0.1974,-0.1918,-0.1927,-0.1928,-0.1924,-0.1897,-0.1896,-0.1895,-0.1908,-0.1908,-0.1908,0,0,-0.2549,-0.2509,-0.2474,-0.2435,-0.2376,-0.234,-0.2332,-0.2266,-0.2241,-0.2189,-0.2156,-0.2119,-0.2042,-0.2003,-0.1973,-0.1952,-0.1929,-0.1939,-0.1945,-0.192,-0.1919,-0.1918,-0.191,-0.1908,-0.1936,-0.1937,-0.1937,0,-0.2566,-0.2503,-0.2459,-0.2418,-0.2387,-0.2346,-0.2311,-0.2275,-0.2205,-0.2184,-0.2179,-0.2081,-0.204,-0.1982,-0.1978,-0.1955,-0.1944,-0.1946,-0.1923,-0.1921,-0.1919,-0.1912,-0.1909,-0.1938,-0.1938,-0.1938,-0.1938,0,-0.2527,-0.2484,-0.2463,-0.2396,-0.2362,-0.2325,-0.2274,-0.2245,-0.222,-0.2184,-0.2132,-0.2082,-0.2025,-0.201,-0.1984,-0.1948,-0.1946,-0.1933,-0.1924,-0.1921,-0.1912,-0.1909,-0.194,-0.194,-0.1939,-0.1939,0,0,-0.2544,-0.2453,-0.2446,-0.2415,-0.2348,-0.2314,-0.2274,-0.2219,-0.2196,-0.2149,-0.2114,-0.205,-0.2037,-0.2004,-0.1973,-0.1951,-0.1938,-0.194,-0.1938,-0.1941,-0.1895,-0.1905,-0.1903,-0.1922,-0.1921,-0.1921,-0.19,0,-0.2527,-0.2455,-0.2414,-0.2358,-0.2318,-0.2279,-0.2245,-0.22,-0.2165,-0.2126,-0.2088,-0.2044,-0.203,-0.2009,-0.1986,-0.1944,-0.1928,-0.1945,-0.1889,-0.1888,-0.1904,-0.1898,-0.1909,-0.1891,-0.1896,-0.1896,-0.1895,0,-0.2498,-0.2452,-0.2393,-0.233,-0.2312,-0.2281,-0.2228,-0.2191,-0.2139,-0.2116,-0.2079,-0.2049,-0.2005,-0.2001,-0.194,-0.1953,-0.1928,-0.1904,-0.1902,-0.1895,-0.1891,-0.189,-0.1884,-0.1882,-0.189,-0.189,-0.189,0,-0.2516,-0.2439,-0.2393,-0.2368,-0.2294,-0.2274,-0.2242,-0.219,-0.216,-0.2114,-0.2094,-0.2043,-0.2015,-0.1976,-0.1933,-0.1934,-0.1877,-0.1869,-0.1856,-0.1857,-0.1845,-0.1846,-0.1835,-0.183,-0.183,-0.183,-0.183,0,-0.2502,-0.2467,-0.24,-0.2372,-0.2332,-0.2285,-0.2247,-0.2212,-0.2166,-0.2131,-0.2095,-0.2062,-0.2007,-0.1968,-0.1934,-0.1889,-0.1877,-0.1857,-0.1848,-0.1859,-0.1862,-0.1841,-0.1841,-0.1829,-0.183,-0.183,-0.183,0,-0.2514,-0.2469,-0.2416,-0.235,-0.2333,-0.2306,-0.225,-0.2221,-0.2186,-0.2141,-0.2128,-0.2071,-0.2023,-0.1977,-0.1912,-0.1889,-0.1844,-0.1833,-0.1862,-0.1857,-0.1847,-0.1848,-0.1821,-0.1815,-0.1815,-0.1816,-0.1816,0,-0.2508,-0.248,-0.2411,-0.2385,-0.2354,-0.2312,-0.2281,-0.2234,-0.2204,-0.2143,-0.2122,-0.2071,-0.2028,-0.1953,-0.1906,-0.1856,-0.1843,-0.1837,-0.1835,-0.1848,-0.1842,-0.1844,-0.1841,-0.1838,-0.1838,-0.1839,-0.1839,0,-0.2501,-0.248,-0.2437,-0.2386,-0.235,-0.2308,-0.2265,-0.2245,-0.219,-0.2157,-0.2108,-0.2075,-0.2009,-0.1959,-0.1904,-0.1871,-0.1846,-0.184,-0.1834,-0.1845,-0.1863,-0.1853,-0.1865,-0.184,-0.184,-0.184,-0.184,-0.184,-0.2503,-0.2477,-0.2424,-0.2378,-0.234,-0.2301,-0.227,-0.2231,-0.2189,-0.2132,-0.2107,-0.2057,-0.2006,-0.193,-0.1897,-0.1857,-0.1851,-0.1843,-0.1841,-0.184,-0.1842,-0.187,-0.1847,-0.1847,-0.1847,-0.1847,-0.1847,0,-0.2494,-0.2459,-0.2417,-0.2357,-0.232,-0.23,-0.2251,-0.2222,-0.2178,-0.2133,-0.2092,-0.2035,-0.1986,-0.1936,-0.1885,-0.1863,-0.185,-0.1851,-0.1851,-0.1844,-0.1851,-0.186,-0.1862,-0.1862,-0.1862,-0.1862,-0.1862,-0.1862,-0.2485,-0.2439,-0.2412,-0.2347,-0.2312,-0.2263,-0.2236,-0.22,-0.2163,-0.2102,-0.2061,-0.2029,-0.1982,-0.1927,-0.1881,-0.1868,-0.185,-0.1855,-0.1838,-0.1845,-0.1844,-0.1843,-0.1852,-0.1851,-0.1851,-0.1834,-0.1834,-0.1834]},{"header":{"parameterUnit":"m.s-1","parameterCategory":1,"la1":30.2991,"la2":30.254,"lo1":-89.0895,"lo2":-89.0444,"dy":0.0017,"dx":0.0017,"nx":28,"ny":28,"refTime":"2025-06-13T21:00:00:Z","depth":0,"parameterNumber":3,"parameterNumberName":"V-component_of_WINDS"},"data":[0,0,0,0,0,0,0,0,0,0,0,0,0,0,0,0,0,0,0,0,0,0,0,0,0,0,0,0,0,0,0,0,0,0,0,0,0,0,0,0,0,0,0,0,0,0,0,0,0,0,0,0,0,0,0,0,0,0,5.0011,5.001,0,4.9981,4.998,4.998,4.9895,4.9893,4.9891,4.9889,4.9861,4.9862,4.9863,0,0,0,0,0,0,0,0,0,0,0,0,0,4.9997,4.9998,5.0011,5.001,5.001,4.9981,4.998,4.998,4.9895,4.9893,4.9891,4.9888,4.9861,4.9862,4.9863,0,0,0,0,0,0,0,0,0,0,0,0,0,4.9989,4.9998,5.0011,4.9964,4.996,4.9981,4.998,4.998,4.9896,4.9893,4.989,4.9887,4.986,4.9862,4.9863,4.9928,0,0,4.9868,4.9868,0,0,0,0,0,0,0,0,4.9989,4.9989,4.9971,4.9967,4.9962,4.9939,4.9965,4.9963,4.9896,4.992,4.9889,4.9886,4.9889,4.9888,4.9889,4.9927,4.9926,4.9868,4.9869,4.9869,4.987,0,0,0,0,0,0,0,4.999,4.999,4.9999,4.9971,4.9966,4.9945,4.9941,4.9964,4.9921,4.9918,4.9911,4.9909,4.9886,4.9888,4.9888,4.9925,4.9868,4.9869,4.987,4.9871,5.0016,5.0019,0,0,0,0,0,0,4.9997,4.9991,5.0,4.9998,4.9969,4.9948,4.9943,4.9949,4.992,4.9913,4.9911,4.9905,4.9886,4.9886,4.9886,4.9961,4.9869,4.9871,4.9872,5.0013,5.0017,5.002,0,0,0,0,0,0,4.9997,4.9999,5.0001,4.9993,4.9992,4.9951,4.9959,4.995,4.9951,4.9915,4.9907,4.992,4.9884,4.9884,4.9918,4.9959,4.9872,4.9873,5.001,5.0014,5.0018,5.011,0,0,0,0,0,0,4.9997,4.9999,5.0023,4.9994,4.9992,5.0033,4.9961,4.9951,4.9954,4.9945,4.9922,4.9915,4.9882,4.9917,4.992,4.9959,4.9874,5.0006,5.0012,5.0017,5.0103,5.0117,5.0129,0,0,0,0,0,4.9997,5.005,5.0024,5.0026,5.0021,5.0036,5.0035,4.9995,4.9957,4.9981,4.9958,4.9916,4.9954,4.9921,4.9924,4.9964,5.0003,5.001,5.0016,5.0098,5.0115,5.0129,0,0,0,0,0,0,5.0085,5.0046,5.0016,5.0062,5.0053,5.0021,5.005,5.0014,5.0016,5.0008,4.9959,4.9954,4.9996,4.9983,4.9947,5.0026,4.9971,4.9979,5.0032,5.0048,5.0061,5.0063,4.9875,0,0,0,0,0,5.011,5.0125,5.0089,5.0133,5.013,5.0091,5.0096,5.0066,5.0055,5.0051,5.003,5.0022,5.0031,5.0039,5.0046,5.0101,5.0095,5.013,5.0143,5.0154,5.0161,5.019,5.0205,5.0042,5.0042,5.0042,0,0,5.0162,5.0142,5.0154,5.015,5.014,5.0157,5.0088,5.0109,5.0121,5.0054,5.0085,5.007,5.0057,5.0102,5.0121,5.0093,5.0205,5.0163,5.0171,5.0173,5.0199,5.0214,5.0228,5.0046,5.0046,5.0045,0,0,5.0264,5.025,5.0285,5.0276,5.026,5.0234,5.0243,5.0217,5.0204,5.0234,5.0184,5.0198,5.0216,5.0209,5.0208,5.0309,5.0271,5.0313,5.038,5.0409,5.0422,5.0433,5.0469,5.0483,5.032,5.032,5.032,0,5.033,5.0353,5.0308,5.0332,5.0332,5.0271,5.0307,5.03,5.0289,5.0291,5.0259,5.028,5.0268,5.0311,5.0335,5.0336,5.0345,5.0315,5.0423,5.0434,5.0444,5.0478,5.0492,5.0325,5.0325,5.0324,5.0324,0,5.0435,5.0452,5.0482,5.0471,5.0475,5.0505,5.0465,5.0475,5.0445,5.0422,5.0454,5.0437,5.0439,5.0447,5.0418,5.0487,5.047,5.0432,5.0376,5.0465,5.0497,5.0509,5.0333,5.0331,5.033,5.0328,0,0,5.0592,5.0556,5.0568,5.0563,5.0542,5.0554,5.0582,5.0583,5.0593,5.0587,5.0609,5.0626,5.059,5.0589,5.0559,5.0584,5.0666,5.0543,5.0542,5.0567,5.0741,5.077,5.0786,5.064,5.0642,5.0644,5.0742,0,5.0689,5.0733,5.0694,5.0746,5.0761,5.0704,5.0728,5.0718,5.0698,5.0709,5.0687,5.07,5.0652,5.0651,5.0673,5.0651,5.07,5.0644,5.0661,5.0663,5.0666,5.0802,5.0832,5.0925,5.0754,5.0756,5.0757,0,5.0808,5.0807,5.086,5.0836,5.0841,5.0863,5.0862,5.0872,5.086,5.0844,5.0843,5.0806,5.0832,5.0778,5.0814,5.0777,5.0782,5.0772,5.0775,5.0775,5.0715,5.0806,5.0954,5.0968,5.0776,5.0774,5.0773,0,5.0918,5.093,5.0963,5.096,5.0932,5.095,5.0939,5.0924,5.0928,5.0927,5.0929,5.0932,5.0934,5.0938,5.0903,5.0866,5.0944,5.0886,5.0932,5.0933,5.095,5.095,5.1101,5.0954,5.0953,5.0953,5.0953,0,5.103,5.1065,5.1012,5.1033,5.107,5.1026,5.1065,5.1048,5.1036,5.1053,5.1004,5.1021,5.0974,5.0986,5.096,5.0994,5.0995,5.0983,5.0976,5.0988,5.0989,5.099,5.0983,5.0957,5.0956,5.0955,5.0955,0,5.1159,5.1125,5.1158,5.1128,5.1122,5.1151,5.1127,5.1145,5.1122,5.1145,5.1147,5.1111,5.1124,5.1089,5.1097,5.1079,5.1128,5.111,5.1132,5.1127,5.1174,5.1171,5.1332,5.1351,5.1191,5.1193,5.1194,0,5.1233,5.1259,5.1232,5.124,5.1232,5.1245,5.1248,5.1205,5.1211,5.12,5.122,5.1228,5.1233,5.1256,5.1231,5.1236,5.1218,5.1275,5.1219,5.123,5.122,5.1219,5.1221,5.1286,5.1288,5.129,5.1291,0,5.1369,5.135,5.1357,5.1358,5.1363,5.1362,5.1357,5.1367,5.1321,5.133,5.1342,5.1345,5.1353,5.1362,5.1362,5.1352,5.1315,5.1309,5.132,5.1332,5.1344,5.1339,5.1164,5.1305,5.1304,5.1303,5.1302,5.1301,5.1472,5.1492,5.1477,5.1486,5.1478,5.1475,5.1491,5.147,5.1479,5.1481,5.1455,5.1473,5.1461,5.1457,5.1451,5.1465,5.1439,5.1455,5.1459,5.1463,5.1471,5.1342,5.1465,5.1464,5.1464,5.1463,5.1463,0,5.1605,5.1593,5.1601,5.1596,5.1604,5.1567,5.156,5.1569,5.1585,5.1576,5.1581,5.1596,5.1604,5.1581,5.1586,5.1602,5.1585,5.1605,5.1603,5.1602,5.1494,5.1484,5.1618,5.1618,5.1618,5.1618,5.1618,5.1618,5.1675,5.1708,5.1688,5.1716,5.1703,5.1719,5.1718,5.1716,5.1709,5.1726,5.1733,5.1717,5.1703,5.1707,5.1714,5.1707,5.1711,5.1737,5.1724,5.1624,5.1609,5.1595,5.1585,5.1739,5.1739,5.1831,5.1832,5.1833]}]]